EA5JUX Weather Reports


Display with metric or nautical units.
time (UTC)temp
F
wind
direction
speed
MPH
gust
MPH
rain 1hr
in
rain 24hr
in
rain mn
in
humidity
%
barometer
mb
20260510204725 68 315 11.0 23.0 0.00 0.00 0.00 71 1011.5
20260510204232 69 225 11.0 23.0 0.00 0.00 0.00 71 1011.3
20260510200236 68 225 14.0 21.0 0.00 0.00 0.00 71 1010.7
20260510185234 68 225 15.0 25.0 0.00 0.00 0.00 69 1010.4
20260510180235 69 203 12.0 23.0 0.00 0.00 0.00 70 1010.2
20260510175735 69 203 11.0 21.0 0.00 0.00 0.00 69 1010.3
20260510172734 71 225 11.0 17.0 0.00 0.00 0.00 62 1011.1
20260510170228 72 225 15.0 18.0 0.00 0.00 0.00 58 1010.7
20260510164737 71 203 11.0 22.0 0.00 0.00 0.00 63 1010.6
20260510164226 71 180 9.0 22.0 0.00 0.00 0.00 62 1010.9
20260510155736 72 248 6.0 21.0 0.00 0.00 0.00 62 1011.0
20260510154732 72 270 8.0 21.0 0.00 0.00 0.00 63 1011.0
20260510152732 71 225 11.0 20.0 0.00 0.00 0.00 63 1010.8
20260510144237 72 225 5.0 16.0 0.00 0.00 0.00 65 1011.7
20260510141234 71 203 8.0 16.0 0.00 0.00 0.00 65 1011.9
20260510122225 69 203 8.0 14.0 0.00 0.00 0.00 73 1013.2
20260510121731 70 203 8.0 15.0 0.00 0.00 0.00 74 1013.1
20260510115228 69 225 11.0 18.0 0.00 0.00 0.00 74 1013.3
20260510112730 70 225 11.0 16.0 0.00 0.02 0.00 74 1013.5
20260510110734 70 180 11.0 17.0 0.00 0.05 0.00 72 1013.5
20260510102733 69 180 8.0 16.0 0.00 0.06 0.00 72 1014.0
20260510100232 71 180 8.0 11.0 0.00 0.07 0.00 69 1013.8
20260510095231 70 203 5.0 9.0 0.00 0.11 0.00 70 1014.1
20260510093228 70 68 3.0 6.0 0.00 0.11 0.00 79 1014.0
20260510090729 68 45 5.0 7.0 0.00 0.17 0.00 79 1013.8
20260510085727 69 68 3.0 4.0 0.00 0.24 0.00 78 1013.8
20260510074229 66 0 4.0 6.0 0.00 0.31 0.00 82 1013.8
20260510065228 65 45 3.0 2.0 0.00 0.34 0.00 85 1013.7
20260510062732 63 0 2.0 2.0 0.00 0.37 0.00 88 1013.5
20260510061225 62 293 1.0 2.0 0.00 0.37 0.00 89 1013.6
20260510044731 59 293 1.0 6.0 0.00 0.37 0.00 89 1013.2
20260510042734 62 270 2.0 4.0 0.00 0.37 0.00 88 1013.1
20260510025728 64 225 4.0 8.0 0.00 0.37 0.00 84 1012.8
20260510023731 64 225 2.0 8.0 0.00 0.37 0.00 84 1012.8
20260510022724 64 225 2.0 11.0 0.00 0.37 0.00 84 1012.8
20260510015233 64 248 4.0 13.0 0.00 0.37 0.00 85 1012.8
20260510003733 64 225 8.0 8.0 0.00 0.37 0.00 86 1012.8
20260510001232 64 225 5.0 8.0 0.00 0.37 0.00 84 1013.0
20260509232727 64 248 6.0 11.0 0.00 0.37 0.00 84 1013.3
20260509230230 64 180 5.0 11.0 0.00 0.37 0.00 84 1013.1